When you browse on this site, cookies collect data to enhance your experience and personalize the content and advertising you see.
Visit our Privacy Policy to learn more. By continuing to use the site, you agree to this use of cookies and data.
  • In Romania
  • List of Countries
  • For 7 days
  • Water Temperature
  • Satellite Maps
  • Weather Map
  • Weather Widgets
  • user-avatar
    Login

    Hourly Weather Glew

    Today, 15 February, Friday

    Time Temperature Precipitation Wind Pressure Humidity
    00:00 +4°C° 0 mm 2 mps 754 mmHg 95%
    01:00 +5°C° 0 mm 1 mps 754 mmHg 95%
    02:00 +5°C° 0 mm 1 mps 754 mmHg 95%
    03:00 +5°C° 0 mm 1 mps 754 mmHg 95%
    04:00 +4°C° 0 mm 2 mps 754 mmHg 95%
    05:00 +4°C° 0 mm 2 mps 754 mmHg 95%
    06:00 +5°C° 0 mm 1 mps 754 mmHg 95%
    07:00 +4°C° 0 mm 1 mps 754 mmHg 95%
    08:00 +5°C° 0 mm 1 mps 754 mmHg 91%
    09:00 +6°C° 0 mm 1 mps 754 mmHg 88%
    10:00 +6°C° 0 mm 1 mps 754 mmHg 85%
    11:00 +6°C° 0 mm 2 mps 754 mmHg 78%
    12:00 +7°C° 0 mm 2 mps 754 mmHg 72%
    13:00 +8°C° 0 mm 3 mps 754 mmHg 66%
    14:00 +8°C° 0 mm 3 mps 753 mmHg 67%
    15:00 +8°C° 0 mm 3 mps 753 mmHg 69%
    16:00 +8°C° 0 mm 3 mps 753 mmHg 70%
    17:00 +5°C° 0 mm 3 mps 753 mmHg 75%
    18:00 +4°C° 0 mm 3 mps 753 mmHg 80%
    19:00 +4°C° 0 mm 2 mps 753 mmHg 84%
    20:00 +4°C° 0 mm 2 mps 753 mmHg 85%
    21:00 +3°C° 0 mm 2 mps 753 mmHg 86%
    22:00 +3°C° 0 mm 2 mps 752 mmHg 86%
    23:00 +3°C° 0 mm 2 mps 752 mmHg 87%

    Tomorrow, 16 February, Saturday

    Time Temperature Precipitation Wind Pressure Humidity
    00:00 +2°C° 0 mm 2 mps 752 mmHg 87%
    01:00 +2°C° 0 mm 2 mps 752 mmHg 87%
    02:00 +2°C° 0 mm 2 mps 752 mmHg 87%
    03:00 +2°C° 0 mm 2 mps 752 mmHg 87%
    04:00 +2°C° 0 mm 2 mps 752 mmHg 87%
    05:00 +1°C° 0 mm 2 mps 752 mmHg 87%
    06:00 +1°C° 0 mm 2 mps 752 mmHg 86%
    07:00 +1°C° 0 mm 2 mps 752 mmHg 86%
    08:00 +3°C° 0 mm 2 mps 752 mmHg 79%
    09:00 +5°C° 0 mm 2 mps 752 mmHg 72%
    10:00 +7°C° 0 mm 1 mps 752 mmHg 65%
    11:00 +8°C° 0 mm 2 mps 751 mmHg 61%
    12:00 +9°C° 0 mm 2 mps 751 mmHg 57%
    13:00 +10°C° 0 mm 2 mps 751 mmHg 52%
    14:00 +10°C° 0 mm 2 mps 751 mmHg 54%
    15:00 +11°C° 0 mm 1 mps 751 mmHg 57%
    16:00 +11°C° 0 mm 1 mps 750 mmHg 59%
    17:00 +9°C° 0 mm 1 mps 750 mmHg 63%
    18:00 +7°C° 0 mm 2 mps 750 mmHg 67%
    19:00 +6°C° 0 mm 2 mps 750 mmHg 72%
    20:00 +6°C° 0 mm 2 mps 750 mmHg 74%
    21:00 +5°C° 0 mm 2 mps 750 mmHg 77%
    22:00 +5°C° 0 mm 2 mps 750 mmHg 80%
    23:00 +4°C° 0 mm 2 mps 750 mmHg 77%

    Day after tomorrow, 17 February, Sunday

    Time Temperature Precipitation Wind Pressure Humidity
    00:00 +4°C° 0 mm 2 mps 750 mmHg 75%
    01:00 +4°C° 0 mm 2 mps 750 mmHg 73%
    02:00 +4°C° 0 mm 2 mps 749 mmHg 72%
    03:00 +2°C° 0 mm 3 mps 749 mmHg 70%
    04:00 +2°C° 0 mm 3 mps 749 mmHg 69%
    05:00 +3°C° 0 mm 2 mps 749 mmHg 69%
    06:00 +2°C° 0 mm 2 mps 749 mmHg 68%
    07:00 +2°C° 0 mm 2 mps 749 mmHg 68%
    08:00 +4°C° 0 mm 2 mps 749 mmHg 63%
    09:00 +5°C° 0 mm 3 mps 749 mmHg 57%
    10:00 +7°C° 0 mm 3 mps 749 mmHg 51%
    11:00 +9°C° 0 mm 3 mps 749 mmHg 48%
    12:00 +10°C° 0 mm 3 mps 749 mmHg 45%
    13:00 +11°C° 0 mm 3 mps 748 mmHg 42%
    14:00 +11°C° 0 mm 3 mps 748 mmHg 45%
    15:00 +10°C° 0 mm 2 mps 748 mmHg 48%
    16:00 +10°C° 0 mm 2 mps 748 mmHg 51%
    17:00 +9°C° 0 mm 2 mps 748 mmHg 55%
    18:00 +8°C° 0 mm 1 mps 748 mmHg 60%
    19:00 +7°C° 0 mm 1 mps 748 mmHg 65%
    20:00 +6°C° 0 mm 1 mps 748 mmHg 68%
    21:00 +6°C° 0 mm 1 mps 748 mmHg 71%
    22:00 +5°C° 0 mm 1 mps 748 mmHg 74%
    23:00 +5°C° 0 mm 1 mps 748 mmHg 76%

    18 February, Monday

    Time Temperature Precipitation Wind Pressure Humidity
    00:00 +5°C° 0 mm 1 mps 748 mmHg 77%
    01:00 +4°C° 0 mm 1 mps 748 mmHg 79%
    02:00 +4°C° 0 mm 1 mps 748 mmHg 79%
    03:00 +4°C° 0 mm 1 mps 748 mmHg 79%
    04:00 +3°C° 0 mm 1 mps 747 mmHg 79%
    05:00 +3°C° 0 mm 1 mps 748 mmHg 78%
    06:00 +2°C° 0 mm 0 mps 748 mmHg 77%
    07:00 +2°C° 0 mm 0 mps 748 mmHg 75%
    08:00 +3°C° 0 mm 0 mps 748 mmHg 69%
    09:00 +5°C° 0 mm 0 mps 748 mmHg 64%
    10:00 +7°C° 0 mm 1 mps 748 mmHg 58%
    11:00 +8°C° 0 mm 1 mps 748 mmHg 55%
    12:00 +9°C° 0 mm 1 mps 748 mmHg 52%
    13:00 +10°C° 0 mm 1 mps 747 mmHg 49%
    14:00 +10°C° 0 mm 1 mps 747 mmHg 51%
    15:00 +10°C° 0 mm 1 mps 747 mmHg 53%
    16:00 +10°C° 0 mm 1 mps 747 mmHg 55%
    17:00 +8°C° 0 mm 2 mps 747 mmHg 61%
    18:00 +6°C° 0 mm 2 mps 747 mmHg 66%
    19:00 +5°C° 0 mm 2 mps 747 mmHg 71%
    20:00 +6°C° 0 mm 1 mps 747 mmHg 74%
    21:00 +5°C° 0 mm 1 mps 747 mmHg 77%
    22:00 +5°C° 0 mm 1 mps 747 mmHg 80%
    23:00 +4°C° 0 mm 1 mps 747 mmHg 80%

    19 February, Tuesday

    Time Temperature Precipitation Wind Pressure Humidity
    00:00 +4°C° 0 mm 1 mps 746 mmHg 80%
    01:00 +3°C° 0 mm 0 mps 746 mmHg 80%
    02:00 +4°C° 0 mm 1 mps 746 mmHg 78%
    03:00 +3°C° 0 mm 1 mps 746 mmHg 77%
    04:00 +3°C° 0 mm 1 mps 745 mmHg 75%
    05:00 +3°C° 0 mm 1 mps 745 mmHg 73%
    06:00 +3°C° 0 mm 1 mps 745 mmHg 70%
    07:00 +3°C° 0 mm 1 mps 745 mmHg 68%
    08:00 +5°C° 0 mm 1 mps 745 mmHg 61%
    09:00 +7°C° 0 mm 1 mps 745 mmHg 54%
    10:00 +8°C° 0 mm 1 mps 745 mmHg 48%
    11:00 +9°C° 0 mm 2 mps 745 mmHg 46%
    12:00 +10°C° 0 mm 2 mps 744 mmHg 44%
    13:00 +11°C° 0 mm 3 mps 744 mmHg 42%
    14:00 +11°C° 0 mm 3 mps 744 mmHg 46%
    15:00 +11°C° 0 mm 3 mps 744 mmHg 50%
    16:00 +10°C° 0 mm 3 mps 743 mmHg 53%
    17:00 +9°C° 0 mm 3 mps 743 mmHg 60%
    18:00 +8°C° 0 mm 3 mps 743 mmHg 66%
    19:00 +5°C° 0 mm 4 mps 744 mmHg 73%
    20:00 +5°C° 0 mm 4 mps 744 mmHg 74%
    21:00 +4°C° 0 mm 4 mps 744 mmHg 75%
    22:00 +4°C° 0 mm 4 mps 744 mmHg 75%
    23:00 +3°C° 0 mm 5 mps 744 mmHg 75%

    20 February, Wednesday

    Time Temperature Precipitation Wind Pressure Humidity
    00:00 +3°C° 0 mm 5 mps 744 mmHg 75%
    01:00 +3°C° 0 mm 5 mps 745 mmHg 75%
    02:00 +4°C° 0 mm 4 mps 745 mmHg 79%
    03:00 +3°C° 0 mm 4 mps 745 mmHg 83%
    04:00 +3°C° 0 mm 4 mps 745 mmHg 88%
    05:00 +3°C° 0 mm 4 mps 745 mmHg 89%
    06:00 +1°C° 0 mm 4 mps 745 mmHg 90%
    07:00 +1°C° 0 mm 4 mps 746 mmHg 91%
    08:00 +3°C° 0 mm 4 mps 746 mmHg 84%
    09:00 +5°C° 0 mm 5 mps 746 mmHg 76%
    10:00 +5°C° 0 mm 6 mps 747 mmHg 69%
    11:00 +7°C° 0 mm 6 mps 746 mmHg 64%
    12:00 +7°C° 0 mm 6 mps 746 mmHg 59%
    13:00 +8°C° 0 mm 6 mps 746 mmHg 53%
    14:00 +8°C° 0 mm 6 mps 746 mmHg 53%
    15:00 +8°C° 0 mm 5 mps 746 mmHg 53%
    16:00 +7°C° 0 mm 5 mps 746 mmHg 53%
    17:00 +6°C° 0 mm 4 mps 746 mmHg 58%
    18:00 +5°C° 0 mm 3 mps 747 mmHg 62%
    19:00 +4°C° 0 mm 3 mps 747 mmHg 67%
    20:00 +4°C° 0 mm 3 mps 747 mmHg 69%
    21:00 +4°C° 0 mm 3 mps 747 mmHg 71%
    22:00 +4°C° 0 mm 3 mps 747 mmHg 73%
    23:00 +3°C° 0 mm 3 mps 747 mmHg 75%
    Show more